Regional Weather Roundup
Issued by NWS

Home | Current Version | Previous Version | Text Only | Print | Product List | Glossary On
Versions: 1 2 3 4 5 6 7 8 9 10 11 12 13 14 15 16 17 18 19 20 21 22 23 24 25 26 27 28 29 30 31 32 33 34 35 36 37 38 39 40 41 42 43 44 45 46 47 48 49 50
000
ASUS43 KLMK 222010
RWRKY
KENTUCKY REGIONAL WEATHER ROUNDUP
NATIONAL WEATHER SERVICE LOUISVILLE KY
400 PM EDT WED MAR 22 2017

NOTE "FAIR" INDICATES FEW OR NO CLOUDS BELOW 12,000 FEET
WITH NO SIGNIFICANT WEATHER AND/OR OBSTRUCTIONS TO VISIBILITY.

KYZ001>023-026-027-061>063-070>075-222100-
WESTERN AND SOUTH CENTRAL KENTUCKY

CITY           SKY/WX    TMP DP  RH WIND       PRES   REMARKS
PADUCAH        SUNNY     55  22  27 NE15      30.34F
HENDERSON      SUNNY     43  19  39 NE14      30.37F
OWENSBORO      SUNNY     52  19  27 NE12      30.37F
HOPKINSVILLE   SUNNY     55  21  26 NE8       30.31F
BOWLING GREEN  SUNNY     54  17  23 NE13      30.34F
GLASGOW        SUNNY     50  19  28 NE14G21   30.34F
$$

KYZ024-025-028>034-038-045-046-053-222100-
NORTH CENTRAL KENTUCKY

CITY           SKY/WX    TMP DP  RH WIND       PRES   REMARKS
LOUISVILLE/SDF MOSUNNY   50  11  20 NE14G21   30.40F
LOUISVILLE/LOU SUNNY     49  12  22 NE12G20   30.41F
FORT KNOX      SUNNY     48  14  25 NE15      30.36S
$$

KYZ035>037-039>044-047>052-055>060-089>105-222100-
NORTHEAST KENTUCKY

CITY           SKY/WX    TMP DP  RH WIND       PRES   REMARKS
LEXINGTON      SUNNY     46  16  30 N17G24    30.39F
COVINGTON      SUNNY     41  18  39 NE12G21   30.44F
FRANKFORT      SUNNY     48  10  21 NE12      30.39F
$$

KYZ054-064>069-076>088-106>120-222100-
SOUTHEAST KENTUCKY

CITY           SKY/WX    TMP DP  RH WIND       PRES   REMARKS
JACKSON        SUNNY     50  17  27 VRB6      30.34F
LONDON         SUNNY     51  10  19 N13G20    30.31F
SOMERSET       SUNNY     48  19  32 N10G17    30.34F
MIDDLESBORO    SUNNY     56  19  24 N5        30.28F
MONTICELLO     CLEAR     50  19  29 N17G26    30.34F
$$





USA.gov is the U.S. government's official web portal to all federal, state and local government web resources and services.